Weather History for KNHK - June, 2013

Change the Weather History Date:

Friday, June 21, 2013

  Actual Average Record
Temperature  
Mean Temperature 66 °F -  
Max Temperature 79 °F 83 °F 97 °F (2012)
Min Temperature 55 °F 65 °F 54 °F (2004)
Cooling Degree Days 2    
Growing Degree Days 16 (Base 50)    
Moisture  
Dew Point 58 °F    
Average Humidity 72    
Maximum Humidity 93    
Minimum Humidity 55    
Precipitation  
Precipitation 0.11 in - - ()
Sea Level Pressure  
Sea Level Pressure 30.28 in    
Wind  
Wind Speed 3 mph (SE)    
Max Wind Speed 8 mph    
Max Gust Speed -    
Visibility 10 miles    
Events      
Averages and records for this station are not official NWS values.
T = Trace of Precipitation, MM = Missing Value Source: NWS Daily Summary

Daily Weather History Graph

Daily Weather History Graph

Search for Another Location

Airport or City:

Trip Planner

Search our weather history database for the weather conditions in past years. The results will help you decide how hot, cold, wet, or windy it might be!

Date:

Astronomy

Jun. 21, 2013 Rise Set
Actual Time 5:42 AM EDT 8:32 PM EDT
Civil Twilight 5:10 AM EDT 9:04 PM EDT
Nautical Twilight 4:30 AM EDT 9:44 PM EDT
Astronomical Twilight 3:45 AM EDT 10:29 PM EDT
Moon 6:41 PM EDT (6/21) 3:54 AM EDT (6/21)
Length of Visible Light 15h 53m
Length of Day
14h 50m
Waxing Gibbous, 95% of the Moon is Illuminated
Jun 21
Waxing Gibbous
Jun 23
Full
Jun 30
Last Quarter
Jul 8
New
Jul 15
First Quarter

Hourly Weather History & Observations

Time (EDT) Temp. Dew Point Humidity Pressure Visibility Wind Dir Wind Speed Gust Speed Precip Events Conditions
12:52 AM 59.0 °F 51.1 °F 75% 30.27 in 10.0 mi Calm Calm - N/A   Clear
1:52 AM 57.0 °F 52.0 °F 83% 30.29 in 10.0 mi Calm Calm - N/A   Clear
2:52 AM 55.9 °F 53.1 °F 90% 30.28 in 10.0 mi Calm Calm - N/A   Clear
3:52 AM 55.9 °F 52.0 °F 87% 30.28 in 10.0 mi Calm Calm - N/A   Clear
4:52 AM 55.0 °F 53.1 °F 93% 30.27 in 10.0 mi Calm Calm - N/A   Clear
5:01 AM 55.4 °F 51.8 °F 88% 30.26 in 10.0 mi Calm Calm - N/A   Mostly Cloudy
5:52 AM 55.0 °F 53.1 °F 93% 30.27 in 10.0 mi Calm Calm - N/A   Mostly Cloudy
6:52 AM 62.1 °F 57.9 °F 86% 30.28 in 10.0 mi ESE 5.8 mph - N/A   Scattered Clouds
7:52 AM 66.9 °F 61.0 °F 81% 30.29 in 10.0 mi East 4.6 mph - N/A   Scattered Clouds
8:52 AM 69.1 °F 60.1 °F 73% 30.31 in 10.0 mi East 4.6 mph - N/A   Scattered Clouds
9:52 AM 70.0 °F 59.0 °F 68% 30.30 in 10.0 mi Calm Calm - N/A   Scattered Clouds
10:52 AM 72.0 °F 57.9 °F 61% 30.30 in 10.0 mi East 6.9 mph - N/A   Partly Cloudy
11:52 AM 73.0 °F 59.0 °F 61% 30.30 in 10.0 mi ESE 6.9 mph - N/A   Scattered Clouds
12:52 PM 75.0 °F 57.9 °F 55% 30.31 in 10.0 mi East 5.8 mph - N/A   Scattered Clouds
1:52 PM 75.9 °F 59.0 °F 56% 30.30 in 10.0 mi ESE 3.5 mph - N/A   Scattered Clouds
2:52 PM 77.0 °F 62.1 °F 60% 30.29 in 10.0 mi ESE 6.9 mph - 0.11 in   Scattered Clouds
3:52 PM 77.0 °F 62.1 °F 60% 30.28 in 10.0 mi ESE 5.8 mph - N/A   Scattered Clouds
4:52 PM 78.1 °F 62.1 °F 58% 30.27 in 10.0 mi SE 8.1 mph - N/A   Scattered Clouds
5:52 PM 77.0 °F 62.1 °F 60% 30.25 in 10.0 mi SE 8.1 mph - N/A   Scattered Clouds
6:52 PM 77.0 °F 63.0 °F 62% 30.26 in 10.0 mi SSE 8.1 mph - N/A   Scattered Clouds
7:52 PM 75.0 °F 63.0 °F 66% 30.25 in 10.0 mi South 8.1 mph - N/A   Scattered Clouds
8:52 PM 72.0 °F 63.0 °F 73% 30.26 in 10.0 mi South 6.9 mph - N/A   Scattered Clouds
9:52 PM 71.1 °F 63.0 °F 75% 30.26 in 10.0 mi South 4.6 mph - N/A   Partly Cloudy
10:52 PM 69.1 °F 61.0 °F 75% 30.26 in 10.0 mi SSE 4.6 mph - N/A   Partly Cloudy
11:52 PM 70.0 °F 61.0 °F 73% 30.26 in 10.0 mi SSE 6.9 mph - N/A   Clear